New Bedford, MA

5:16 AM EDT on August 24, 2017 (GMT -0400)
New Bedford Regional

Weather History for KEWB - April, 2012

Change the Weather History Date:

Saturday, April 28, 2012

  Actual Average Record
Temperature  
Mean Temperature 46 °F -  
Max Temperature 60 °F 59 °F 89 °F (1990)
Min Temperature 33 °F 43 °F 30 °F (2006)
Degree Days  
Heating Degree Days 19    
Moisture  
Dew Point 22 °F    
Average Humidity 41    
Maximum Humidity 70    
Minimum Humidity 18    
Precipitation  
Precipitation 0.00 in - - ()
Sea Level Pressure  
Sea Level Pressure 30.07 in    
Wind  
Wind Speed 10 mph (West)    
Max Wind Speed 17 mph    
Max Gust Speed 28 mph    
Visibility 10 miles    
Events      
Averages and records for this station are not official NWS values.
T = Trace of Precipitation, MM = Missing Value Source: NWS Daily Summary

Daily Weather History Graph

Daily Weather History Graph

Search for Another Location

Airport or City:

Trip Planner

Search our weather history database for the weather conditions in past years. The results will help you decide how hot, cold, wet, or windy it might be!

Date:

Astronomy

Apr. 28, 2012 Rise Set
Actual Time 5:43 AM EDT 7:39 PM EDT
Civil Twilight 5:13 AM EDT 8:09 PM EDT
Nautical Twilight 4:37 AM EDT 8:46 PM EDT
Astronomical Twilight 3:57 AM EDT 9:25 PM EDT
Moon 11:19 AM EDT (4/28) 1:02 AM EDT (4/28)
Length of Visible Light 14h 55m
Length of Day
13h 55m
Waxing Crescent, 42% of the Moon is Illuminated
Apr 28
Waxing Crescent
Apr 29
First Quarter
May 5
Full
May 12
Last Quarter
May 20
New

Hourly Weather History & Observations

Time (EDT) Temp. Windchill Dew Point Humidity Pressure Visibility Wind Dir Wind Speed Gust Speed Precip Events Conditions
12:53 AM 39.0 °F 31.4 °F 23.0 °F 53% 30.02 in 10.0 mi West 12.7 mph - N/A   Clear
1:53 AM 37.4 °F 29.8 °F 23.0 °F 56% 30.02 in 10.0 mi West 11.5 mph - N/A   Clear
2:53 AM 37.4 °F 29.8 °F 24.8 °F 60% 30.02 in 10.0 mi WNW 11.5 mph - N/A   Clear
3:53 AM 36.0 °F 30.3 °F 24.1 °F 62% 30.03 in 10.0 mi West 6.9 mph - N/A   Clear
4:53 AM 36.0 °F 29.6 °F 24.1 °F 62% 30.04 in 10.0 mi West 8.1 mph - N/A   Clear
5:53 AM 33.8 °F - 24.8 °F 70% 30.06 in 10.0 mi Calm Calm - N/A   Clear
6:53 AM 39.0 °F 33.4 °F 25.0 °F 57% 30.09 in 10.0 mi West 8.1 mph - N/A   Clear
7:53 AM 41.0 °F 33.1 °F 24.1 °F 51% 30.12 in 10.0 mi WNW 15.0 mph 20.7 mph N/A   Clear
8:53 AM 43.0 °F 37.2 °F 23.0 °F 45% 30.13 in 10.0 mi WNW 10.4 mph 17.3 mph N/A   Clear
9:53 AM 45.0 °F 41.8 °F 24.1 °F 44% 30.13 in 10.0 mi Variable 5.8 mph - N/A   Clear
10:53 AM 48.0 °F - 24.1 °F 39% 30.13 in 10.0 mi West 9.2 mph 18.4 mph N/A   Clear
11:53 AM 50.0 °F - 21.9 °F 33% 30.11 in 10.0 mi WNW 12.7 mph 23.0 mph N/A   Clear
12:53 PM 52.0 °F - 21.0 °F 30% 30.09 in 10.0 mi West 17.3 mph 27.6 mph N/A   Clear
1:53 PM 55.0 °F - 19.9 °F 25% 30.07 in 10.0 mi West 11.5 mph 24.2 mph N/A   Clear
2:53 PM 57.9 °F - 19.0 °F 22% 30.06 in 10.0 mi West 16.1 mph 25.3 mph N/A   Clear
3:53 PM 57.9 °F - 19.0 °F 22% 30.04 in 10.0 mi SW 10.4 mph 18.4 mph N/A   Clear
4:53 PM 59.0 °F - 15.1 °F 18% 30.02 in 10.0 mi West 11.5 mph 19.6 mph N/A   Clear
5:53 PM 57.9 °F - 15.1 °F 19% 30.03 in 10.0 mi West 12.7 mph 19.6 mph N/A   Clear
6:53 PM 55.9 °F - 12.0 °F 18% 30.04 in 10.0 mi West 10.4 mph 20.7 mph N/A   Clear
7:53 PM 54.0 °F - 10.9 °F 18% 30.06 in 10.0 mi WNW 5.8 mph 16.1 mph N/A   Clear
8:53 PM 51.1 °F - 27.0 °F 39% 30.08 in 10.0 mi SW 6.9 mph - N/A   Clear
9:53 PM 50.0 °F - 28.4 °F 43% 30.09 in 10.0 mi SW 4.6 mph - N/A   Clear
10:53 PM 48.9 °F - 30.0 °F 48% 30.09 in 10.0 mi West 4.6 mph - N/A   Clear
11:53 PM 48.9 °F - 28.9 °F 46% 30.09 in 10.0 mi West 5.8 mph - N/A   Clear